This is the latest recevied weather packets stored in our database for station/object K1RFS. If no packets are shown the sender has not sent any weather packets the latest 10 day(s).
| Time | Temp. | Humidity | Pressure | Rain* | Wind** | Luminosity | Snow |
|---|---|---|---|---|---|---|---|
| 1787853015 | 31.67° C | 28% | 1006.5 hPa | 0 mm | - | 45 W/m² | - |
| 1787852715 | 31.67° C | 27% | 1006.5 hPa | 0 mm | - | 43 W/m² | - |
| 1787852415 | 31.11° C | 27% | 1006.6 hPa | 0 mm | - | 41 W/m² | - |
| 1787852114 | 31.11° C | 28% | 1006.8 hPa | 0 mm | - | 40 W/m² | - |
| 1787851810 | 30.56° C | 28% | 1006.6 hPa | 0 mm | - | 39 W/m² | - |
| 1787851503 | 31.11° C | 28% | 1006.8 hPa | 0 mm | - | 39 W/m² | - |
| 1787851198 | 30.56° C | 27% | 1006.8 hPa | 0 mm | - | 38 W/m² | - |
| 1787850894 | 30.56° C | 27% | 1006.6 hPa | 0 mm | - | 38 W/m² | - |
| 1787850590 | 30.56° C | 27% | 1006.5 hPa | 0 mm | - | 37 W/m² | - |
| 1787850289 | 30.56° C | 27% | 1006.6 hPa | 0 mm | - | 37 W/m² | - |
| 1787849990 | 30.56° C | 28% | 1006.8 hPa | 0 mm | - | 36 W/m² | - |
| 1787849684 | 30.56° C | 30% | 1006.5 hPa | 0 mm | - | 36 W/m² | - |
| 1787849379 | 30° C | 26% | 1006.8 hPa | 0 mm | - | 36 W/m² | - |
| 1787849078 | 30° C | 27% | 1006.6 hPa | 0 mm | - | 35 W/m² | - |
| 1787848773 | 30° C | 27% | 1006.8 hPa | 0 mm | - | 35 W/m² | - |
| 1787848472 | 30° C | 27% | 1006.9 hPa | 0 mm | - | 35 W/m² | - |
| 1787848168 | 30° C | 27% | 1007 hPa | 0 mm | - | 34 W/m² | - |
| 1787847867 | 30° C | 27% | 1006.9 hPa | 0 mm | - | 34 W/m² | - |
| 1787847562 | 30° C | 28% | 1007.1 hPa | 0 mm | - | 34 W/m² | - |
| 1787847258 | 29.44° C | 28% | 1006.9 hPa | 0 mm | - | 33 W/m² | - |
| 1787846955 | 28.89° C | 28% | 1006.8 hPa | 0 mm | - | 33 W/m² | - |
| 1787846654 | 28.89° C | 33% | 1007 hPa | 0 mm | - | 33 W/m² | - |
| 1787846349 | 28.33° C | 33% | 1007.1 hPa | 0 mm | - | 33 W/m² | - |
| 1787846045 | 28.33° C | 33% | 1007.1 hPa | 0 mm | - | 32 W/m² | - |
| 1787845741 | 28.33° C | 35% | 1007.2 hPa | 0 mm | - | 32 W/m² | - |
* Rain latest hour (hover to see other rain measurements)
** Current wind speed in m/s (hover to see current wind gust speed)